| time (UTC) | temp F | wind direction | speed MPH | gust MPH | rain 1hr in | rain 24hr in | rain mn in | humidity % | barometer mb |
| 20260505022026 | 49 | 282 | 0.0 | 0.0 | 0.00 | 0.03 | 0.03 | 73 | 1012.8 |
| 20260505021527 | 49 | 282 | 0.0 | 0.0 | 0.00 | 0.03 | 0.03 | 73 | 1012.7 |
| 20260505021041 | 49 | 282 | 0.0 | 0.0 | 0.00 | 0.03 | 0.03 | 73 | 1012.8 |
| 20260505020536 | 49 | 282 | 0.0 | 2.0 | 0.00 | 0.03 | 0.03 | 73 | 1012.8 |
| 20260505020038 | 49 | 282 | 0.0 | 2.0 | 0.00 | 0.03 | 0.03 | 73 | 1012.8 |
| 20260505015541 | 49 | 282 | 0.0 | 0.0 | 0.00 | 0.03 | 0.03 | 72 | 1012.9 |
| 20260505015043 | 49 | 282 | 0.0 | 1.0 | 0.00 | 0.03 | 0.03 | 71 | 1012.7 |
| 20260505014524 | 49 | 282 | 0.0 | 2.0 | 0.00 | 0.03 | 0.03 | 71 | 1012.6 |
| 20260505014023 | 50 | 278 | 0.0 | 3.0 | 0.00 | 0.03 | 0.03 | 70 | 1012.6 |
| 20260505013553 | 50 | 275 | 0.0 | 3.0 | 0.00 | 0.03 | 0.03 | 69 | 1012.6 |
| 20260505013032 | 50 | 300 | 0.0 | 3.0 | 0.00 | 0.03 | 0.03 | 69 | 1012.5 |
| 20260505012531 | 50 | 307 | 0.0 | 2.0 | 0.00 | 0.03 | 0.03 | 69 | 1012.5 |
| 20260505012031 | 50 | 316 | 0.0 | 4.0 | 0.00 | 0.03 | 0.03 | 69 | 1012.6 |
| 20260505011530 | 50 | 285 | 0.0 | 4.0 | 0.00 | 0.03 | 0.03 | 69 | 1012.6 |
| 20260505011102 | 51 | 286 | 0.0 | 3.0 | 0.00 | 0.03 | 0.03 | 69 | 1012.6 |
| 20260505010544 | 51 | 289 | 0.0 | 4.0 | 0.00 | 0.03 | 0.03 | 67 | 1012.7 |
| 20260505010047 | 51 | 263 | 0.0 | 6.0 | 0.00 | 0.03 | 0.03 | 66 | 1012.7 |
| 20260505005529 | 52 | 290 | 1.0 | 6.0 | 0.00 | 0.03 | 0.03 | 64 | 1012.7 |
| 20260505005030 | 52 | 282 | 0.0 | 5.0 | 0.00 | 0.03 | 0.03 | 64 | 1012.6 |
| 20260505004529 | 53 | 289 | 0.0 | 7.0 | 0.00 | 0.03 | 0.03 | 62 | 1012.6 |
| 20260505004029 | 54 | 291 | 2.0 | 7.0 | 0.00 | 0.03 | 0.03 | 60 | 1012.6 |
| 20260505003530 | 54 | 288 | 1.0 | 6.0 | 0.00 | 0.03 | 0.03 | 59 | 1012.6 |
| 20260505003039 | 55 | 306 | 0.0 | 0.0 | 0.00 | 0.03 | 0.03 | 59 | 1012.5 |
| 20260505002541 | 55 | 306 | 0.0 | 0.0 | 0.00 | 0.03 | 0.03 | 59 | 1012.3 |
| 20260505002023 | 55 | 306 | 0.0 | 3.0 | 0.00 | 0.03 | 0.03 | 57 | 1012.2 |
| 20260505001523 | 55 | 306 | 0.0 | 4.0 | 0.00 | 0.03 | 0.03 | 58 | 1012.2 |
| 20260505001023 | 55 | 336 | 0.0 | 4.0 | 0.00 | 0.03 | 0.03 | 58 | 1012.2 |
| 20260505000528 | 56 | 253 | 0.0 | 0.0 | 0.00 | 0.03 | 0.03 | 61 | 1012.2 |
| 20260505000030 | 56 | 253 | 0.0 | 0.0 | 0.01 | 0.03 | 0.03 | 61 | 1012.1 |
| 20260504235534 | 56 | 253 | 0.0 | 0.0 | 0.02 | 0.03 | 0.03 | 61 | 1012.2 |
| 20260504235035 | 56 | 253 | 0.0 | 0.0 | 0.02 | 0.03 | 0.03 | 61 | 1012.1 |
| 20260504234534 | 56 | 253 | 0.0 | 0.0 | 0.02 | 0.03 | 0.03 | 60 | 1011.9 |
| 20260504234035 | 56 | 253 | 0.0 | 0.0 | 0.02 | 0.03 | 0.03 | 64 | 1011.8 |
| 20260504233535 | 55 | 253 | 0.0 | 0.0 | 0.02 | 0.03 | 0.03 | 64 | 1011.9 |
| 20260504233109 | 55 | 238 | 0.0 | 0.0 | 0.02 | 0.03 | 0.03 | 67 | 1011.8 |
| 20260504232549 | 55 | 238 | 0.0 | 0.0 | 0.02 | 0.03 | 0.03 | 68 | 1011.9 |
| 20260504232030 | 54 | 238 | 0.0 | 0.0 | 0.02 | 0.03 | 0.03 | 68 | 1012.1 |
| 20260504231531 | 53 | 237 | 0.0 | 0.0 | 0.02 | 0.03 | 0.03 | 66 | 1012.1 |
| 20260504231037 | 53 | 237 | 0.0 | 2.0 | 0.02 | 0.03 | 0.03 | 66 | 1012.3 |
| 20260504230536 | 53 | 237 | 0.0 | 3.0 | 0.02 | 0.03 | 0.03 | 63 | 1012.3 |
| 20260504230033 | 55 | 268 | 0.0 | 5.0 | 0.01 | 0.02 | 0.02 | 59 | 1012.2 |
| 20260504225533 | 56 | 282 | 2.0 | 5.0 | 0.00 | 0.01 | 0.01 | 53 | 1012.2 |
| 20260504225035 | 58 | 278 | 0.0 | 5.0 | 0.00 | 0.01 | 0.01 | 48 | 1011.9 |
| 20260504224532 | 58 | 284 | 0.0 | 2.0 | 0.00 | 0.01 | 0.01 | 42 | 1011.7 |
| 20260504224105 | 59 | 284 | 0.0 | 2.0 | 0.00 | 0.01 | 0.01 | 41 | 1011.6 |
| 20260504223524 | 59 | 316 | 0.0 | 1.0 | 0.00 | 0.01 | 0.01 | 41 | 1011.4 |
| 20260504223034 | 59 | 316 | 0.0 | 3.0 | 0.00 | 0.01 | 0.01 | 41 | 1011.3 |
| 20260504222535 | 59 | 332 | 0.0 | 3.0 | 0.00 | 0.01 | 0.01 | 41 | 1011.1 |
| 20260504222037 | 59 | 339 | 0.0 | 2.0 | 0.00 | 0.01 | 0.01 | 42 | 1011.2 |
| 20260504221546 | 60 | 344 | 0.0 | 4.0 | 0.00 | 0.01 | 0.01 | 42 | 1011.1 |
| 20260504221042 | 60 | 345 | 0.0 | 4.0 | 0.00 | 0.01 | 0.01 | 43 | 1010.9 |
| 20260504220523 | 60 | 336 | 0.0 | 3.0 | 0.01 | 0.01 | 0.01 | 44 | 1010.7 |
| 20260504220023 | 60 | 12 | 0.0 | 7.0 | 0.01 | 0.01 | 0.01 | 45 | 1010.5 |
| 20260504215524 | 60 | 34 | 1.0 | 7.0 | 0.01 | 0.01 | 0.01 | 46 | 1010.4 |
| 20260504215027 | 60 | 33 | 1.0 | 6.0 | 0.01 | 0.01 | 0.01 | 48 | 1010.6 |
| 20260504214528 | 60 | 348 | 0.0 | 6.0 | 0.01 | 0.01 | 0.01 | 50 | 1010.8 |
| 20260504214026 | 60 | 16 | 1.0 | 4.0 | 0.01 | 0.01 | 0.01 | 49 | 1011.0 |
| 20260504213527 | 59 | 24 | 1.0 | 3.0 | 0.01 | 0.01 | 0.01 | 51 | 1011.1 |
| 20260504213036 | 58 | 36 | 0.0 | 1.0 | 0.01 | 0.01 | 0.01 | 55 | 1011.4 |
| 20260504212536 | 57 | 39 | 0.0 | 3.0 | 0.01 | 0.01 | 0.01 | 54 | 1011.9 |
| 20260504212038 | 57 | 66 | 0.0 | 3.0 | 0.01 | 0.01 | 0.01 | 50 | 1012.1 |
| 20260504211539 | 57 | 327 | 0.0 | 6.0 | 0.01 | 0.01 | 0.01 | 48 | 1012.2 |
| 20260504211039 | 57 | 255 | 0.0 | 6.0 | 0.01 | 0.01 | 0.01 | 45 | 1012.4 |
| 20260504210535 | 58 | 303 | 0.0 | 7.0 | 0.00 | 0.00 | 0.00 | 45 | 1012.4 |
| 20260504210038 | 59 | 334 | 1.0 | 5.0 | 0.00 | 0.00 | 0.00 | 44 | 1012.2 |
| 20260504205538 | 59 | 316 | 0.0 | 5.0 | 0.00 | 0.00 | 0.00 | 42 | 1012.0 |
| 20260504205040 | 60 | 336 | 1.0 | 9.0 | 0.00 | 0.00 | 0.00 | 39 | 1011.9 |
| 20260504204543 | 60 | 327 | 0.0 | 9.0 | 0.00 | 0.00 | 0.00 | 38 | 1011.7 |
| 20260504204024 | 60 | 305 | 0.0 | 10.0 | 0.00 | 0.00 | 0.00 | 39 | 1011.4 |
| 20260504203526 | 61 | 302 | 0.0 | 10.0 | 0.00 | 0.00 | 0.00 | 39 | 1011.3 |
| 20260504203040 | 62 | 326 | 2.0 | 11.0 | 0.00 | 0.00 | 0.00 | 36 | 1010.9 |
| 20260504202541 | 63 | 343 | 3.0 | 16.0 | 0.00 | 0.00 | 0.00 | 31 | 1010.6 |
| 20260504202044 | 63 | 11 | 6.0 | 16.0 | 0.00 | 0.00 | 0.00 | 30 | 1010.4 |
| 20260504201546 | 64 | 310 | 2.0 | 13.0 | 0.00 | 0.00 | 0.00 | 28 | 1010.4 |
| 20260504201048 | 66 | 3 | 3.0 | 13.0 | 0.00 | 0.00 | 0.00 | 26 | 1010.5 |
| 20260504200531 | 69 | 329 | 1.0 | 9.0 | 0.00 | 0.00 | 0.00 | 22 | 1010.6 |
| 20260504200033 | 69 | 349 | 1.0 | 4.0 | 0.00 | 0.00 | 0.00 | 22 | 1010.3 |
| 20260504195526 | 70 | 338 | 0.0 | 4.0 | 0.00 | 0.00 | 0.00 | 23 | 1010.4 |
| 20260504195028 | 70 | 262 | 0.0 | 10.0 | 0.00 | 0.00 | 0.00 | 23 | 1010.4 |
| 20260504194539 | 71 | 296 | 2.0 | 10.0 | 0.00 | 0.00 | 0.00 | 23 | 1010.3 |
| 20260504194040 | 72 | 297 | 1.0 | 8.0 | 0.00 | 0.00 | 0.00 | 24 | 1010.3 |
| 20260504193543 | 73 | 314 | 1.0 | 9.0 | 0.00 | 0.00 | 0.00 | 24 | 1010.3 |
| 20260504193044 | 73 | 305 | 2.0 | 11.0 | 0.00 | 0.00 | 0.00 | 21 | 1010.3 |
| 20260504192546 | 73 | 278 | 1.0 | 10.0 | 0.00 | 0.00 | 0.00 | 22 | 1010.3 |
| 20260504192047 | 73 | 289 | 2.0 | 11.0 | 0.00 | 0.00 | 0.00 | 23 | 1010.3 |
| 20260504191526 | 72 | 272 | 0.0 | 7.0 | 0.00 | 0.00 | 0.00 | 22 | 1010.2 |
| 20260504191025 | 71 | 249 | 1.0 | 10.0 | 0.00 | 0.00 | 0.00 | 22 | 1010.3 |
| 20260504190525 | 70 | 280 | 2.0 | 14.0 | 0.00 | 0.00 | 0.00 | 23 | 1010.3 |
| 20260504190027 | 70 | 263 | 2.0 | 14.0 | 0.00 | 0.00 | 0.00 | 22 | 1010.4 |
| 20260504185531 | 71 | 244 | 3.0 | 11.0 | 0.00 | 0.00 | 0.00 | 22 | 1010.4 |
| 20260504185033 | 70 | 239 | 3.0 | 11.0 | 0.00 | 0.00 | 0.00 | 23 | 1010.4 |
| 20260504184531 | 71 | 217 | 5.0 | 11.0 | 0.00 | 0.00 | 0.00 | 23 | 1010.4 |
| 20260504184031 | 71 | 230 | 2.0 | 15.0 | 0.00 | 0.00 | 0.00 | 23 | 1010.5 |
| 20260504183602 | 70 | 239 | 4.0 | 15.0 | 0.00 | 0.00 | 0.00 | 24 | 1010.6 |
| 20260504183023 | 70 | 282 | 2.0 | 14.0 | 0.00 | 0.00 | 0.00 | 24 | 1010.7 |
| 20260504182544 | 69 | 270 | 6.0 | 14.0 | 0.00 | 0.00 | 0.00 | 24 | 1010.7 |
| 20260504182044 | 69 | 211 | 3.0 | 15.0 | 0.00 | 0.00 | 0.00 | 25 | 1010.9 |
| 20260504181544 | 69 | 286 | 4.0 | 13.0 | 0.00 | 0.00 | 0.00 | 24 | 1010.9 |
| 20260504181043 | 68 | 247 | 4.0 | 12.0 | 0.00 | 0.00 | 0.00 | 25 | 1011.0 |
| 20260504180543 | 68 | 247 | 2.0 | 11.0 | 0.00 | 0.00 | 0.00 | 25 | 1011.0 |
| 20260504180044 | 67 | 223 | 4.0 | 11.0 | 0.00 | 0.00 | 0.00 | 26 | 1011.0 |
| 20260504175550 | 67 | 286 | 3.0 | 11.0 | 0.00 | 0.00 | 0.00 | 27 | 1011.2 |
| 20260504175029 | 66 | 274 | 2.0 | 10.0 | 0.00 | 0.00 | 0.00 | 27 | 1011.2 |
| 20260504174529 | 66 | 222 | 0.0 | 4.0 | 0.00 | 0.00 | 0.00 | 28 | 1011.4 |
| 20260504174028 | 65 | 274 | 1.0 | 4.0 | 0.00 | 0.00 | 0.00 | 27 | 1011.4 |
| 20260504173526 | 65 | 268 | 1.0 | 4.0 | 0.00 | 0.00 | 0.00 | 29 | 1011.5 |
| 20260504173023 | 64 | 228 | 1.0 | 3.0 | 0.00 | 0.00 | 0.00 | 29 | 1011.6 |
| 20260504172524 | 64 | 243 | 0.0 | 8.0 | 0.00 | 0.00 | 0.00 | 29 | 1011.6 |
| 20260504172024 | 64 | 227 | 4.0 | 8.0 | 0.00 | 0.00 | 0.00 | 29 | 1011.5 |
| 20260504171526 | 63 | 220 | 1.0 | 5.0 | 0.00 | 0.00 | 0.00 | 30 | 1011.5 |
| 20260504171027 | 63 | 202 | 1.0 | 7.0 | 0.00 | 0.00 | 0.00 | 30 | 1011.5 |
| 20260504170528 | 63 | 219 | 1.0 | 7.0 | 0.00 | 0.00 | 0.00 | 30 | 1011.5 |
| 20260504151044 | 53 | 136 | 0.0 | 0.0 | 0.00 | 0.00 | 0.00 | 47 | 1011.7 |
| 20260504150543 | 52 | 104 | 0.0 | 0.0 | 0.00 | 0.00 | 0.00 | 48 | 1011.7 |
| 20260504141031 | 46 | 354 | 0.0 | 0.0 | 0.00 | 0.00 | 0.00 | 56 | 1011.8 |
| 20260504140601 | 45 | 354 | 0.0 | 0.0 | 0.00 | 0.00 | 0.00 | 56 | 1011.8 |
| 20260504130543 | 36 | 354 | 0.0 | 0.0 | 0.00 | 0.00 | 0.00 | 63 | 1011.9 |
| 20260504110548 | 36 | 354 | 0.0 | 0.0 | 0.00 | 0.00 | 0.00 | 58 | 1012.1 |
| 20260504100603 | 38 | 354 | 0.0 | 0.0 | 0.00 | 0.00 | 0.00 | 54 | 1012.3 |
| 20260504081526 | 41 | 354 | 0.0 | 0.0 | 0.00 | 0.00 | 0.00 | 52 | 1012.8 |
| 20260504081024 | 41 | 354 | 0.0 | 0.0 | 0.00 | 0.00 | 0.00 | 52 | 1012.9 |
| 20260504080524 | 41 | 354 | 0.0 | 0.0 | 0.00 | 0.00 | 0.00 | 51 | 1013.0 |
| 20260504050559 | 54 | 327 | 0.0 | 2.0 | 0.00 | 0.00 | 0.00 | 35 | 1013.5 |
| 20260504045522 | 54 | 280 | 0.0 | 3.0 | 0.00 | 0.00 | 0.00 | 34 | 1013.6 |
| 20260504045026 | 55 | 313 | 0.0 | 0.0 | 0.00 | 0.00 | 0.00 | 32 | 1013.5 |
| 20260504044529 | 56 | 308 | 0.0 | 4.0 | 0.00 | 0.00 | 0.00 | 30 | 1013.5 |
| 20260504044031 | 56 | 305 | 0.0 | 5.0 | 0.00 | 0.00 | 0.00 | 29 | 1013.4 |
| 20260504043529 | 56 | 297 | 1.0 | 5.0 | 0.00 | 0.00 | 0.00 | 31 | 1013.4 |
| 20260504043028 | 56 | 349 | 0.0 | 1.0 | 0.00 | 0.00 | 0.00 | 31 | 1013.4 |
| 20260504042527 | 57 | 313 | 0.0 | 4.0 | 0.00 | 0.00 | 0.00 | 30 | 1013.4 |
| 20260504042028 | 58 | 324 | 0.0 | 7.0 | 0.00 | 0.00 | 0.00 | 28 | 1013.3 |
| 20260504041528 | 59 | 332 | 0.0 | 7.0 | 0.00 | 0.00 | 0.00 | 26 | 1013.3 |
| 20260504041023 | 59 | 273 | 1.0 | 5.0 | 0.00 | 0.00 | 0.00 | 27 | 1013.1 |
| 20260504040526 | 59 | 266 | 0.0 | 3.0 | 0.00 | 0.00 | 0.00 | 27 | 1013.1 |
| 20260504040100 | 58 | 263 | 0.0 | 3.0 | 0.00 | 0.00 | 0.00 | 28 | 1013.2 |
| 20260504035541 | 57 | 231 | 0.0 | 0.0 | 0.00 | 0.00 | 0.00 | 29 | 1013.2 |
| 20260504035023 | 57 | 230 | 0.0 | 0.0 | 0.00 | 0.00 | 0.00 | 29 | 1013.2 |
| 20260504034523 | 58 | 220 | 0.0 | 1.0 | 0.00 | 0.00 | 0.00 | 29 | 1013.2 |
| 20260504034023 | 59 | 220 | 0.0 | 3.0 | 0.00 | 0.00 | 0.00 | 27 | 1013.2 |
| 20260504033524 | 59 | 213 | 0.0 | 3.0 | 0.00 | 0.00 | 0.00 | 28 | 1013.2 |
| 20260504033026 | 58 | 258 | 0.0 | 1.0 | 0.00 | 0.00 | 0.00 | 29 | 1013.2 |
| 20260504032529 | 58 | 247 | 0.0 | 0.0 | 0.00 | 0.00 | 0.00 | 30 | 1013.2 |
| 20260504032032 | 59 | 247 | 0.0 | 0.0 | 0.00 | 0.00 | 0.00 | 30 | 1013.2 |
| 20260504031533 | 59 | 247 | 0.0 | 0.0 | 0.00 | 0.00 | 0.00 | 30 | 1013.2 |
| 20260504031035 | 59 | 247 | 0.0 | 0.0 | 0.00 | 0.00 | 0.00 | 30 | 1013.2 |
| 20260504030604 | 60 | 247 | 0.0 | 0.0 | 0.00 | 0.00 | 0.00 | 29 | 1013.1 |
| 20260504030042 | 60 | 247 | 0.0 | 0.0 | 0.00 | 0.00 | 0.00 | 29 | 1013.1 |
| 20260504025542 | 60 | 247 | 0.0 | 0.0 | 0.00 | 0.00 | 0.00 | 28 | 1013.1 |
| 20260504025044 | 60 | 230 | 0.0 | 0.0 | 0.00 | 0.00 | 0.00 | 29 | 1013.0 |
| 20260504024525 | 61 | 229 | 0.0 | 2.0 | 0.00 | 0.00 | 0.00 | 28 | 1012.9 |
| 20260504024100 | 61 | 230 | 0.0 | 2.0 | 0.00 | 0.00 | 0.00 | 27 | 1012.9 |
| 20260504023540 | 62 | 231 | 0.0 | 1.0 | 0.00 | 0.00 | 0.00 | 25 | 1012.9 |
| 20260504023039 | 62 | 261 | 0.0 | 0.0 | 0.00 | 0.00 | 0.00 | 25 | 1012.9 |
| 20260504022539 | 63 | 261 | 0.0 | 0.0 | 0.00 | 0.00 | 0.00 | 24 | 1012.9 |